Scott Air Force Base, IL

8:52 AM CDT on August 29, 2016 (GMT -0500)
Scott Air Force Base-Midamerica

Weather History for KBLV - November, 2012

Change the Weather History Date:

Friday, November 2, 2012

  Actual Average Record
Temperature  
Mean Temperature 46 °F -  
Max Temperature 55 °F 63 °F 82 °F (1987)
Min Temperature 37 °F 43 °F 21 °F (1951)
Degree Days  
Heating Degree Days 20    
Moisture  
Dew Point 34 °F    
Average Humidity 64    
Maximum Humidity 88    
Minimum Humidity 44    
Precipitation  
Precipitation 0.00 in - - ()
Sea Level Pressure  
Sea Level Pressure 30.03 in    
Wind  
Wind Speed 4 mph (NE)    
Max Wind Speed 9 mph    
Max Gust Speed -    
Visibility 10 miles    
Events      
Averages and records for this station are not official NWS values.
T = Trace of Precipitation, MM = Missing Value Source: NWS Daily Summary

Daily Weather History Graph

Daily Weather History Graph

Search for Another Location

Airport or City:

Trip Planner

Search our weather history database for the weather conditions in past years. The results will help you decide how hot, cold, wet, or windy it might be!

Date:

Astronomy

Nov. 02, 2012 Rise Set
Actual Time 7:27 AM CDT 5:57 PM CDT
Civil Twilight 6:59 AM CDT 6:25 PM CDT
Nautical Twilight 6:28 AM CDT 6:56 PM CDT
Astronomical Twilight 5:57 AM CDT 7:27 PM CDT
Moon 8:46 PM CDT (11/2) 10:46 AM CDT (11/2)
Length of Visible Light 11h 25m
Length of Day
10h 30m
Waning Gibbous, 87% of the Moon is Illuminated
Nov 2
Waning Gibbous
Nov 6
Last Quarter
Nov 13
New
Nov 20
First Quarter
Nov 28
Full

Hourly Weather History & Observations

Time (CDT) Temp. Windchill Dew Point Humidity Pressure Visibility Wind Dir Wind Speed Gust Speed Precip Events Conditions
12:55 AM 40.1 °F - 36.9 °F 88% 29.91 in 10.0 mi Calm Calm - N/A   Clear
1:55 AM 45.7 °F 44.4 °F 37.6 °F 73% 29.91 in 10.0 mi North 3.5 mph - N/A   Clear
2:55 AM 44.6 °F 42.2 °F 36.7 °F 74% 29.94 in 10.0 mi NNW 4.6 mph - N/A   Clear
3:55 AM 43.9 °F 41.3 °F 35.8 °F 73% 29.94 in 10.0 mi North 4.6 mph - N/A   Clear
4:55 AM 41.7 °F 38.8 °F 34.3 °F 75% 29.97 in 10.0 mi North 4.6 mph - N/A   Clear
5:55 AM 40.5 °F 36.5 °F 33.4 °F 76% 29.99 in 10.0 mi Variable 5.8 mph - N/A   Clear
6:55 AM 39.0 °F 35.7 °F 32.5 °F 78% 30.02 in 10.0 mi North 4.6 mph - N/A   Clear
7:55 AM 37.4 °F 32.8 °F 31.8 °F 80% 30.04 in 10.0 mi North 5.8 mph - N/A   Clear
8:55 AM 41.2 °F 37.3 °F 32.4 °F 71% 30.07 in 10.0 mi North 5.8 mph - N/A   Clear
9:55 AM 43.9 °F 38.8 °F 32.7 °F 65% 30.08 in 10.0 mi NE 9.2 mph - N/A   Clear
10:55 AM 48.0 °F - 34.3 °F 59% 30.10 in 10.0 mi NE 5.8 mph - N/A   Clear
11:55 AM 50.2 °F - 34.9 °F 56% 30.10 in 10.0 mi Variable 3.5 mph - N/A   Clear
12:55 PM 52.2 °F - 33.6 °F 49% 30.09 in 10.0 mi ENE 5.8 mph - N/A   Clear
1:55 PM 53.6 °F - 33.4 °F 46% 30.06 in 10.0 mi NE 3.5 mph - N/A   Clear
2:55 PM 54.7 °F - 33.3 °F 44% 30.04 in 10.0 mi Variable 6.9 mph - N/A   Clear
3:55 PM 54.9 °F - 33.3 °F 44% 30.04 in 8.0 mi East 5.8 mph - N/A   Clear
4:55 PM 53.6 °F - 32.5 °F 45% 30.05 in 10.0 mi East 3.5 mph - N/A   Clear
5:55 PM 51.3 °F - 32.7 °F 49% 30.04 in 10.0 mi ENE 4.6 mph - N/A   Partly Cloudy
6:55 PM 48.0 °F - 33.1 °F 56% 30.05 in 10.0 mi Calm Calm - N/A   Clear
7:55 PM 46.4 °F 45.2 °F 33.8 °F 62% 30.06 in 10.0 mi ENE 3.5 mph - N/A   Clear
8:55 PM 45.3 °F 44.0 °F 34.0 °F 65% 30.05 in 10.0 mi East 3.5 mph - N/A   Clear
9:55 PM 44.8 °F 43.3 °F 35.4 °F 70% 30.06 in 10.0 mi ENE 3.5 mph - N/A   Clear
10:55 PM 44.4 °F 42.0 °F 35.2 °F 70% 30.06 in 10.0 mi East 4.6 mph - N/A   Clear
11:55 PM 44.1 °F 41.5 °F 35.1 °F 71% 30.07 in 10.0 mi ENE 4.6 mph - N/A   Clear